This demonstration page uses our WeatherBlox Daily Observations layout. Learn more.

Left ArrowRight Arrow

41.12389, -100.76542

Hourly Observations for May 31, 2017

Temp ( °F °C ) Dew Point ( °F °C ) Humidity (%) Winds ( mph kmh ) Pressure ( in mb ) Visibility ( mi km ) Precip ( " mm )
12:53 am 00:53 Clear 49 9.4 39 3.9 69 69 ENE 5 7 30.05 1018 10 16 0.00 0.00
1:53 am 01:53 Clear 44 6.7 38 3.3 79 79 NE 6 9 30.06 1018 10 16 0.00 0.00
2:53 am 02:53 Partly Cloudy 45 7.2 40 4.4 83 83 E 3 6 30.06 1018 10 16 0.00 0.00
3:53 am 03:53 Clear 47 8.3 42 5.6 83 83 ENE 3 6 30.05 1018 10 16 0.00 0.00
4:53 am 04:53 Clear 45 7.2 41 5 86 86 SE 3 6 30.05 1018 10 16 0.00 0.00
5:53 am 05:53 Mostly Clear 45 7.2 40 4.4 83 83 Calm 30.07 1018 10 16 0.00 0.00
6:53 am 06:53 Partly Cloudy 49 9.4 43 6.1 80 80 E 6 9 30.06 1018 10 16 0.00 0.00
7:53 am 07:53 Cloudy with Light Rain 54 12.2 45 7.2 72 72 SE 10 17 30.05 1018 10 16 0.00 0.03
8:53 am 08:53 Sunny 59 15 46 7.8 62 62 ESE 8 13 30.06 1018 10 16 0.01 0.25
9:53 am 09:53 Mostly Cloudy 63 17.2 43 6.1 48 48 ENE 12 19 30.09 1019 10 16 0.00 0.00
10:53 am 10:53 Mostly Sunny 68 20 43 6.1 40 40 E 16 26 30.05 1018 10 16 0.01 0.25
11:53 am 11:53 Sunny 70 21.1 44 6.7 39 39 ESE 15 24 30.05 1018 10 16 0.00 0.00
12:53 pm 12:53 Sunny 74 23.3 44 6.7 34 34 ESE 16 26 30.05 1018 10 16 0.00 0.00
1:53 pm 13:53 Sunny 76 24.4 45 7.2 33 33 ESE 20 31 30.04 1017 10 16 0.00 0.00
2:53 pm 14:53 Sunny 77 25 47 8.3 35 35 ESE 18 30 30.02 1017 10 16 0.00 0.00
3:53 pm 15:53 Sunny 76 24.4 45 7.2 33 33 E 17 28 30.01 1016 10 16 0.00 0.00
4:53 pm 16:53 Sunny 77 25 47 8.3 35 35 ESE 16 26 30.00 1016 10 16 0.00 0.00
5:53 pm 17:53 Sunny 76 24.4 47 8.3 36 36 ESE 18 30 29.99 1016 10 16 0.00 0.00
6:53 pm 18:53 Sunny 74 23.3 48 8.9 40 40 ESE 15 24 29.97 1015 10 16 0.00 0.00
7:53 pm 19:53 Sunny 69 20.6 48 8.9 47 47 ESE 15 24 29.97 1015 10 16 0.00 0.00
8:53 pm 20:53 Sunny 65 18.3 48 8.9 54 54 ESE 10 17 29.98 1015 10 16 0.00 0.00
9:53 pm 21:53 Clear 59 15 49 9.4 69 69 ESE 8 13 30.00 1016 10 16 0.00 0.00
10:53 pm 22:53 Mostly Cloudy 59 15 49 9.4 69 69 ENE 6 9 30.03 1017 10 16 0.00 0.00
11:53 pm 23:53 Partly Cloudy 56 13.3 50 10 81 81 E 5 7 30.01 1016 10 16 0.00 0.00

Powered by AerisWeather